This demonstration page uses our WeatherBlox Daily Observations layout. Learn more.

Left ArrowRight Arrow

39.95238, -75.16362

Hourly Observations for January 15, 2022

Temp ( °F °C ) Dew Point ( °F °C ) Humidity (%) Winds ( mph kmh ) Pressure ( in mb ) Visibility ( mi km ) Precip ( " mm )
12:54 am 00:54 Clear 24 -4.4 0 -17.8 35 35 NNW 20 31 30.05 1018 10 16 0.00 0.00
1:54 am 01:54 Clear 22 -5.6 0 -17.8 38 38 NNW 21 33 30.07 1018 10 16 0.00 0.00
2:54 am 02:54 Clear 21 -6.1 -1 -18.3 38 38 NNW 16 26 30.11 1020 10 16 0.00 0.00
3:54 am 03:54 Clear 20 -6.7 -3 -19.4 36 36 N 14 22 30.13 1020 10 16 0.00 0.00
4:54 am 04:54 Clear 19 -7.2 -4 -20 36 36 N 16 26 30.14 1021 10 16 0.00 0.00
5:54 am 05:54 Clear 17 -8.3 -6 -21.1 35 35 N 14 22 30.18 1022 10 16 0.00 0.00
6:54 am 06:54 Clear 16 -8.9 -7 -21.7 35 35 N 18 30 30.21 1023 10 16 0.00 0.00
7:54 am 07:54 Partly Cloudy 16 -8.9 -7 -21.7 35 35 NNW 18 30 30.26 1025 10 16 0.00 0.00
8:54 am 08:54 Partly Cloudy 17 -8.3 -9 -22.8 30 30 N 13 20 30.28 1025 10 16 0.00 0.00
9:54 am 09:54 Mostly Cloudy 19 -7.2 -9 -22.8 28 28 N 14 22 30.32 1027 10 16 0.00 0.00
10:54 am 10:54 Mostly Cloudy 21 -6.1 -9 -22.8 26 26 NNW 14 22 30.32 1027 10 16 0.00 0.00
11:54 am 11:54 Mostly Cloudy 23 -5 -9 -22.8 24 24 N 14 22 30.32 1027 10 16 0.00 0.00
12:54 pm 12:54 Cloudy 24 -4.4 -9 -22.8 22 22 N 15 24 30.32 1027 10 16 0.00 0.00
1:54 pm 13:54 Cloudy 24 -4.4 -9 -22.8 22 22 NNW 10 17 30.32 1027 10 16 0.00 0.00
2:54 pm 14:54 Cloudy 25 -3.9 -9 -22.8 22 22 NNW 16 26 30.32 1027 10 16 0.00 0.00
3:54 pm 15:54 Cloudy 23 -5 -9 -22.8 24 24 NNW 12 19 30.33 1027 10 16 0.00 0.00
4:54 pm 16:54 Cloudy 23 -5 -9 -22.8 24 24 NNW 12 19 30.35 1028 10 16 0.00 0.00
5:54 pm 17:54 Cloudy 23 -5 -8 -22.2 25 25 NNW 13 20 30.37 1029 10 16 0.00 0.00
6:54 pm 18:54 Cloudy 22 -5.6 -8 -22.2 26 26 NNW 17 28 30.39 1029 10 16 0.00 0.00
7:54 pm 19:54 Cloudy 20 -6.7 -8 -22.2 28 28 N 10 17 30.39 1029 10 16 0.00 0.00
8:54 pm 20:54 Partly Cloudy 19 -7.2 -7 -21.7 31 31 N 12 19 30.40 1030 10 16 0.00 0.00
9:54 pm 21:54 Mostly Clear 18 -7.8 -6 -21.1 34 34 N 8 13 30.41 1030 10 16 0.00 0.00
10:54 pm 22:54 Mostly Clear 18 -7.8 -5 -20.6 35 35 N 9 15 30.42 1030 10 16 0.00 0.00
11:54 pm 23:54 Clear 17 -8.3 -6 -21.1 35 35 N 9 15 30.41 1030 10 16 0.00 0.00

Powered by AerisWeather